Wind_Speed
89 88 87 85 82 77 73 68 65 64 64 62 60 58 56 56 58 57 55 53 52 50 49 50 50 49 47 44 42 43 44 45 45 44 42 41 40 37 35 35 37 39 39 38 39 40 41 43 44 45 45 44 43 42 39 38 37 36 35 32 28 25 22 21 22 23 22 22 22 23 24 25 24 23 21 17 13 12 15 18 20 20 22 24 25
89 90 90 89 87 83 79 74 69 65 64 63 63 62 59 58 60 60 58 55 52 50 48 49 50 51 50 47 45 46 47 47 47 45 44 43 43 42 40 38 38 39 38 38 37 38 39 40 43 44 45 45 45 43 41 40 38 37 36 35 32 29 26 23 23 24 22 20 21 23 24 25 25 24 22 19 15 13 14 17 18 19 21 23 24
91 91 91 91 90 88 85 81 75 70 66 65 65 66 65 62 61 62 62 59 56 52 49 49 51 52 52 50 47 47 47 47 46 46 45 45 44 44 43 42 41 40 40 40 38 38 37 38 41 43 45 46 46 44 43 42 40 39 38 37 35 33 29 26 25 26 25 23 22 23 25 26 25 24 23 21 19 16 15 16 17 17 19 21 23
92 92 92 92 93 92 90 87 81 76 71 67 66 67 69 69 66 64 64 62 60 57 53 50 51 53 54 52 50 49 49 48 48 48 47 46 45 45 45 44 44 44 44 43 42 40 39 38 40 41 43 46 46 45 45 44 42 40 39 38 37 35 32 29 27 28 28 28 27 26 25 26 27 26 24 24 22 20 19 17 16 17 18 18 21
93 93 93 93 93 94 93 91 87 82 76 71 68 67 69 71 71 70 68 65 63 61 58 55 53 54 56 55 53 52 52 51 51 50 49 49 47 46 46 46 46 47 47 47 46 44 42 41 40 40 41 43 46 47 47 46 44 43 41 40 39 37 35 32 30 30 31 31 31 29 28 27 27 27 27 27 26 23 23 20 15 16 17 16 19
94 94 93 93 94 94 94 93 91 88 82 76 71 68 69 71 71 71 71 70 67 64 62 59 56 56 58 59 56 55 55 55 54 53 52 51 50 48 47 47 47 47 48 48 48 47 45 43 41 40 40 41 44 47 48 48 47 45 44 43 41 39 37 35 34 33 33 33 34 34 33 30 27 27 29 30 30 27 25 22 18 16 16 15 17
95 95 94 94 94 94 94 94 93 92 89 83 76 71 70 71 72 71 72 72 71 68 66 63 59 57 58 60 59 56 56 56 55 57 57 55 53 51 49 48 48 48 48 48 48 48 46 45 43 41 39 40 43 46 48 49 49 48 47 45 45 43 41 39 38 36 35 35 35 37 38 35 31 29 30 31 32 30 26 24 22 18 14 14 17
95 96 95 95 94 94 94 93 93 92 91 88 83 77 72 71 72 72 72 72 73 72 71 68 64 59 58 61 61 58 57 55 54 57 60 59 57 55 53 51 50 50 50 50 49 49 48 46 45 43 40 39 41 45 48 50 50 49 49 48 48 47 46 44 42 39 37 37 37 38 39 39 35 33 33 33 34 33 29 28 27 20 15 17 18
95 96 96 96 95 95 94 93 93 93 91 89 87 84 78 74 73 73 73 73 74 75 74 73 69 64 61 62 64 62 60 58 56 58 61 62 61 59 57 55 53 53 52 52 52 51 49 48 46 44 42 40 41 43 46 50 51 50 50 50 50 50 49 48 45 43 42 40 39 39 40 40 38 36 36 36 37 35 33 32 30 24 21 21 20
96 96 97 97 97 96 95 94 94 93 92 90 88 87 85 82 78 76 75 75 75 76 77 76 73 69 64 64 66 66 65 65 64 63 64 65 65 63 61 59 57 55 54 54 54 53 52 50 48 46 45 43 42 42 44 47 50 50 51 51 50 50 51 50 47 46 46 44 41 41 41 41 40 39 39 40 41 39 36 34 32 29 28 26 24
98 98 97 98 98 98 97 96 95 94 93 92 89 88 89 88 84 81 80 79 77 78 79 78 76 73 69 66 67 69 69 69 69 69 69 69 68 66 65 63 61 59 57 56 55 55 54 52 50 48 47 45 44 44 45 46 48 49 51 52 52 52 52 51 49 48 48 47 44 43 44 42 42 42 42 43 45 43 38 35 34 34 32 31 30
100 100 99 98 99 99 99 98 97 95 94 93 91 88 88 90 88 84 83 83 82 81 81 81 80 78 74 70 69 70 71 71 71 73 72 72 71 69 68 66 64 62 60 58 57 56 55 54 52 50 49 47 47 46 46 47 48 49 51 52 54 55 54 52 50 50 50 50 47 46 45 44 43 44 46 47 48 47 42 39 39 38 36 35 35
101 101 100 99 99 99 100 99 99 97 96 94 93 89 87 89 90 86 84 85 86 85 84 85 84 82 79 75 72 72 73 73 73 74 74 74 72 71 69 68 66 64 63 61 60 58 57 56 55 53 51 50 49 48 48 49 50 51 52 53 54 56 56 54 52 51 52 52 51 47 46 46 46 47 48 50 51 49 46 44 44 42 40 40 39
101 100 100 99 99 99 99 100 100 99 98 96 94 92 88 88 90 88 85 86 87 86 85 85 85 84 82 80 76 75 75 76 76 75 75 75 74 73 71 70 69 67 65 63 62 60 59 57 56 55 53 52 50 50 50 50 51 53 54 53 54 55 57 56 54 52 52 54 54 51 49 49 49 49 50 51 51 50 48 47 47 45 44 45 44
98 99 99 99 99 98 98 99 99 99 99 97 96 95 91 89 90 90 87 86 87 86 85 84 84 84 83 82 79 78 77 78 79 78 78 77 76 75 74 72 71 70 68 66 65 63 62 60 58 57 56 54 52 52 53 52 52 53 54 54 54 55 56 56 56 54 53 55 56 54 53 52 52 52 52 51 51 50 47 46 48 49 47 46 47
90 94 97 97 98 97 97 98 98 99 99 99 98 97 95 92 91 91 89 87 87 87 86 84 83 83 83 82 81 80 79 80 81 81 80 80 79 77 76 74 73 72 71 69 68 66 64 63 61 59 58 57 55 54 55 55 53 52 53 53 54 54 55 56 57 56 55 56 58 57 56 55 55 55 53 51 51 50 45 44 47 49 47 45 46
77 83 89 92 94 95 96 97 97 98 98 99 99 98 97 96 95 93 92 90 88 87 87 86 84 82 82 82 81 81 81 82 82 83 83 82 81 79 78 77 76 74 73 72 71 69 67 65 64 63 62 61 60 58 57 56 55 53 52 53 54 54 54 56 57 57 57 58 58 58 58 58 57 57 55 54 53 52 47 44 45 48 48 46 45
66 71 76 82 86 90 93 95 96 96 97 97 98 98 98 98 97 97 96 95 93 90 88 87 86 84 83 82 82 82 83 83 83 84 85 84 83 82 81 80 78 77 76 75 74 72 70 68 67 67 66 66 65 63 61 58 56 55 54 54 55 55 55 56 57 58 58 59 59 59 60 59 58 58 58 57 55 54 51 47 46 49 49 48 47
58 62 66 70 75 81 85 89 91 93 94 95 96 97 98 98 99 99 99 99 98 96 93 90 89 87 85 84 83 84 85 86 85 85 85 86 86 85 84 83 82 81 79 78 77 76 74 72 71 70 70 69 69 67 65 62 59 57 56 56 55 56 57 59 58 58 58 59 60 61 61 60 59 58 59 59 57 56 54 51 49 50 50 50 51
48 54 59 62 66 70 75 80 84 87 90 92 93 95 96 97 98 99 100 101 100 99 98 97 95 92 90 87 86 86 87 88 88 88 88 88 88 88 88 87 86 84 83 81 80 79 79 77 75 74 74 73 73 71 69 67 64 61 59 57 55 57 60 60 58 57 59 59 60 61 61 61 60 59 59 60 60 58 56 54 52 52 52 52 54
35 43 49 55 59 62 65 69 74 78 82 86 88 91 93 95 97 98 99 101 101 101 101 101 101 100 98 95 92 91 90 90 90 90 90 90 90 91 91 90 89 88 86 85 84 83 82 81 80 79 78 78 77 75 73 71 69 65 62 59 58 59 61 61 59 59 59 59 60 62 62 61 61 61 61 61 62 61 59 56 54 54 55 54 55
22 28 36 43 49 54 58 61 65 69 74 78 82 85 88 91 94 96 97 99 100 102 102 102 103 103 103 102 100 97 96 95 94 93 93 93 93 93 93 93 92 91 89 88 87 86 86 85 84 83 82 81 81 80 78 76 74 71 67 64 63 63 62 62 61 60 59 59 60 61 62 62 62 63 63 63 64 64 63 60 58 57 57 57 59
15 18 23 29 35 41 47 52 57 61 65 70 74 78 82 85 89 91 93 95 97 99 101 102 103 104 104 104 104 103 102 101 99 97 96 96 96 95 95 95 95 94 93 91 91 90 89 89 88 87 87 85 84 84 82 81 79 76 74 71 69 68 66 65 64 63 63 62 62 62 62 62 63 64 65 66 67 68 67 66 64 63 62 61 62
14 16 18 21 24 29 34 40 45 50 55 60 65 69 74 78 82 85 87 90 92 94 96 99 101 103 104 105 105 105 105 105 104 102 100 99 98 98 97 97 97 96 96 95 94 94 93 92 92 91 90 89 88 87 86 85 83 81 79 78 76 75 73 71 69 69 68 67 66 65 65 65 64 64 65 66 69 70 70 69 69 68 68 66 65
16 17 18 19 21 23 26 29 34 38 43 48 53 58 63 68 72 76 79 82 84 87 90 93 96 99 101 103 104 105 106 107 107 107 106 104 103 101 100 99 98 98 98 98 98 97 96 95 95 94 94 93 92 91 90 89 88 87 86 85 83 82 80 79 77 76 74 71 69 68 68 68 67 67 67 67 68 69 70 70 70 70 71 69 69
16 18 19 20 22 23 25 27 28 30 34 37 41 45 50 55 60 64 68 71 75 79 82 85 89 92 94 97 99 101 103 106 108 109 110 109 109 108 106 104 102 101 100 100 100 100 99 99 99 98 98 97 95 94 94 93 93 92 91 90 89 87 86 84 83 81 79 77 75 72 70 71 71 71 70 70 69 70 71 72 71 72 72 71 71
13 15 18 20 22 23 25 27 28 30 31 33 35 37 40 44 48 52 56 60 64 68 72 76 80 83 86 89 92 95 97 100 103 106 109 110 111 112 112 112 110 108 105 104 103 102 102 103 103 102 101 100 99 98 97 97 97 96 95 94 93 91 90 89 87 85 83 82 81 79 77 76 76 76 76 75 74 75 76 76 75 75 76 76 74
11 13 14 16 18 21 23 26 28 30 32 34 35 36 37 39 42 44 47 51 54 58 62 66 70 74 77 81 84 87 90 93 96 100 103 107 109 112 113 114 114 114 112 110 108 107 106 106 107 106 105 104 102 101 101 100 100 100 99 98 97 95 94 93 91 90 88 87 86 85 83 83 82 81 82 81 81 81 82 82 82 81 82 83 81
12 13 14 15 15 17 19 22 24 27 30 33 35 37 38 39 41 42 43 45 47 50 53 57 61 65 69 72 76 79 82 85 88 92 95 99 103 107 110 111 113 113 113 112 110 110 110 109 109 109 109 107 106 105 105 104 104 103 102 101 100 99 98 97 96 95 94 93 92 90 89 88 87 86 87 87 86 86 87 88 88 88 88 89 86
14 14 15 16 16 17 17 18 20 22 24 27 30 33 36 39 40 42 43 45 46 47 49 51 53 57 60 63 67 71 74 77 80 83 86 90 93 97 102 106 108 109 110 110 109 109 110 111 111 111 111 110 109 109 109 108 107 106 106 105 103 102 101 101 100 99 98 98 96 94 93 93 92 91 91 91 91 91 92 91 91 91 91 91 88
14 15 16 17 18 18 19 19 20 20 21 22 24 26 29 33 36 38 41 43 45 47 48 49 51 52 54 56 59 62 65 68 71 74 77 80 84 88 92 96 100 103 105 106 107 108 109 111 112 113 112 112 112 111 111 111 111 110 109 108 107 106 105 104 103 102 102 101 100 99 97 96 96 95 95 95 95 95 95 95 94 93 92 92 91
13 14 15 16 18 19 20 21 21 22 22 23 23 24 25 27 29 32 35 37 40 43 46 48 50 52 53 54 56 57 59 61 64 66 69 72 76 80 83 87 91 95 98 101 103 105 107 109 111 113 114 114 114 114 113 113 113 113 113 112 111 110 109 108 107 107 106 105 104 104 103 102 101 100 99 98 97 97 97 97 96 95 95 94 94
10 11 12 13 15 16 18 19 21 22 23 24 25 26 26 27 28 29 30 32 34 37 40 43 46 49 52 53 55 57 58 59 61 62 64 66 69 72 76 80 83 87 91 95 98 101 103 105 107 109 111 113 114 115 116 116 116 116 115 115 114 113 113 112 112 111 110 109 108 107 107 107 106 105 104 103 102 101 100 100 99 99 99 98 97
10 10 11 12 12 13 15 16 18 19 21 22 24 25 27 28 29 29 30 31 32 33 35 37 40 43 46 49 52 54 57 59 60 62 63 64 65 67 69 72 76 79 83 87 91 95 97 99 101 103 105 107 109 111 114 116 116 117 117 116 116 116 115 115 115 114 114 113 112 112 111 110 110 109 109 108 107 106 105 104 103 103 103 102 101
12 12 12 12 12 13 13 14 16 17 18 20 21 23 25 26 28 30 31 31 32 33 34 35 37 39 41 44 46 49 52 55 58 60 62 64 65 66 67 69 70 73 75 79 83 87 90 93 95 97 98 101 102 104 107 110 113 115 116 116 117 117 117 117 117 117 117 116 116 116 115 114 113 112 112 111 110 109 108 108 108 108 107 107 106
14 14 14 14 14 14 14 14 15 16 17 17 19 20 21 23 25 27 29 31 32 34 35 36 36 38 39 41 43 45 47 49 52 55 58 61 64 66 67 68 69 71 72 73 76 79 83 86 89 91 94 96 98 99 101 104 106 108 110 112 113 114 114 114 114 115 115 115 115 116 116 115 114 115 115 114 113 112 111 111 111 111 111 111 111
15 16 16 16 16 17 17 17 18 18 18 19 19 20 20 21 22 24 25 27 29 31 33 35 36 37 38 40 41 42 44 45 47 50 53 56 59 62 64 67 69 70 71 73 74 75 77 80 83 85 88 91 93 96 98 100 102 103 105 106 107 108 109 109 110 110 110 111 111 112 113 113 113 113 113 113 113 113 113 114 114 114 115 115 115
14 14 15 15 16 17 17 18 19 20 20 21 21 22 22 23 23 24 25 26 27 28 30 32 34 36 37 39 40 41 42 43 44 46 48 50 53 56 59 62 65 67 70 71 73 74 75 77 79 81 83 85 88 90 92 94 96 99 100 102 103 104 105 106 106 107 108 108 108 109 110 110 110 110 109 109 109 110 111 112 113 114 114 114 114
15 15 15 15 15 15 16 16 17 17 18 19 20 21 22 23 24 25 26 27 28 29 30 31 32 33 35 36 38 40 41 43 44 45 46 47 49 51 54 57 60 63 66 68 70 72 73 75 77 79 81 83 84 86 87 88 89 91 93 95 97 98 99 100 101 103 103 104 105 105 106 106 106 106 106 106 106 106 107 108 109 109 109 109 108
19 19 20 20 19 19 19 19 19 19 19 19 19 20 20 21 22 23 24 26 27 29 30 32 33 35 35 36 37 38 39 41 43 45 46 47 48 50 51 53 55 57 61 64 66 69 70 71 74 76 79 81 82 84 85 86 87 87 88 89 91 92 93 94 95 96 97 98 99 100 101 101 101 101 101 101 101 102 103 103 104 104 104 104 103
24 24 25 25 25 25 25 25 25 25 25 24 24 24 24 24 24 24 25 25 26 27 29 30 32 34 36 37 39 40 41 41 42 43 45 47 49 50 51 52 53 55 56 59 61 64 66 68 70 72 74 77 80 82 83 84 85 86 87 87 88 89 90 91 92 92 93 93 94 95 96 96 96 96 96 97 97 98 99 99 100 100 100 100 99
26 27 28 29 30 30 31 31 31 32 32 32 31 31 30 29 29 29 29 29 29 30 30 30 31 32 33 35 37 39 41 42 44 45 46 46 48 49 51 53 54 55 56 57 58 60 62 64 66 68 70 73 75 77 80 81 83 84 85 86 87 88 89 89 90 91 91 91 92 92 93 92 92 92 92 93 94 94 95 96 96 96 96 96 96
28 29 30 31 32 33 34 35 36 37 37 37 38 37 37 36 36 35 34 34 34 34 34 34 34 34 35 35 37 38 39 41 43 44 46 48 49 50 51 53 54 56 57 59 60 60 60 61 62 64 67 69 71 72 74 77 79 80 82 84 85 86 87 88 88 89 89 89 89 90 90 89 89 89 89 90 90 91 91 92 92 91 91 91 91
29 30 32 33 34 36 37 38 39 40 41 42 42 42 42 42 42 41 40 39 39 39 39 39 40 40 40 40 40 40 41 42 43 44 46 47 49 51 52 54 55 56 58 59 61 62 63 63 62 62 64 66 68 69 71 72 73 75 77 79 81 82 84 85 87 87 88 88 87 87 87 86 85 85 86 87 87 87 86 87 86 85 84 83 83
32 33 34 35 36 37 38 40 41 43 44 45 45 46 46 47 46 46 46 45 45 44 44 44 44 45 45 45 45 44 44 45 45 46 47 48 49 51 52 54 56 58 59 61 61 62 63 65 65 65 64 64 65 66 68 69 70 71 72 73 75 77 79 81 83 85 86 86 86 86 85 84 83 83 84 84 83 82 82 81 80 78 76 74 73
35 36 37 38 38 39 40 41 43 44 45 47 48 49 49 50 50 50 51 50 50 50 49 49 50 50 50 50 50 50 50 49 49 49 50 51 52 53 54 55 57 59 61 63 64 64 64 65 66 67 67 67 66 66 66 67 68 69 69 70 71 72 73 75 78 80 81 83 83 84 84 83 81 81 82 81 80 78 76 75 73 70 68 67 67
38 39 40 41 41 42 43 44 45 46 47 48 50 51 51 52 53 53 54 54 54 54 54 54 55 55 55 55 56 56 56 55 54 53 53 54 55 56 57 58 59 61 62 64 67 68 67 66 66 67 68 69 69 68 67 66 66 67 68 68 68 69 69 70 72 74 76 78 79 81 82 81 80 79 80 79 77 73 71 70 68 65 63 62 62
40 41 43 44 45 45 46 47 48 49 50 51 52 53 54 55 55 56 57 57 58 58 58 58 59 59 59 59 60 61 61 61 60 59 58 58 58 59 60 61 63 64 65 66 67 69 71 70 68 67 68 69 70 71 70 69 68 67 67 67 68 68 68 68 68 69 70 72 74 76 78 78 77 77 76 75 73 71 69 67 66 64 61 60 60
43 44 46 47 49 50 51 51 52 52 53 54 54 56 57 57 58 59 59 60 61 62 62 62 62 62 62 63 64 64 65 65 65 64 64 63 63 63 63 64 66 67 68 69 69 70 72 73 72 70 68 68 70 71 72 72 71 69 68 68 68 68 68 68 68 68 68 68 70 71 73 74 74 74 73 72 71 70 68 67 66 63 61 60 59
45 47 48 50 51 53 54 56 56 57 57 58 58 59 60 60 61 62 63 64 65 65 66 66 66 65 65 66 67 67 68 68 68 67 67 67 67 67 67 67 68 69 70 71 71 71 71 72 73 72 71 69 69 70 71 72 73 72 71 70 69 69 69 69 69 69 69 69 69 70 71 71 72 72 72 70 70 70 69 68 66 64 62 61 59
48 49 51 52 54 56 57 59 60 60 61 61 62 63 63 64 65 66 67 68 69 69 70 70 70 69 68 68 69 70 71 72 72 71 70 70 70 71 71 71 71 71 70 71 71 71 71 71 72 73 72 71 70 69 70 71 72 73 73 72 71 71 70 70 71 71 71 71 71 71 72 72 73 73 72 71 70 70 70 68 67 65 64 63 62
Wind_Direction
214 215 216 217 217 217 217 217 219 222 223 222 222 225 228 226 224 226 228 230 232 233 233 231 229 227 225 224 224 225 229 231 230 229 231 236 238 239 239 238 239 242 244 246 247 248 248 248 248 249 250 250 251 252 253 254 254 252 251 250 249 247 246 248 248 247 251 258 265 270 272 274 277 284 293 303 312 323 330 331 336 343 344 346 349
215 215 217 218 218 218 218 217 217 219 222 223 223 223 226 227 226 225 226 229 231 232 233 232 230 227 225 225 225 226 230 234 234 232 232 235 238 239 239 238 239 242 244 248 250 252 254 254 252 251 251 251 252 251 251 253 254 253 251 250 250 248 246 247 247 245 245 250 263 270 272 274 275 278 285 293 299 308 319 321 325 334 336 333 339
218 217 217 218 219 219 220 219 217 217 219 222 224 224 225 227 227 226 226 228 230 231 233 234 232 228 225 225 226 227 230 235 237 236 235 235 237 239 241 241 241 243 245 248 251 254 258 260 259 256 253 253 253 251 250 251 253 253 252 251 251 249 248 248 250 248 244 245 254 264 271 275 275 275 276 281 288 293 301 309 313 323 329 325 329
220 219 219 219 220 220 221 220 219 219 219 220 224 225 226 227 229 229 228 228 229 231 233 235 235 231 227 225 226 226 228 231 234 236 237 237 238 239 240 242 243 244 247 249 252 254 257 261 264 262 257 254 254 252 251 251 252 252 252 251 251 251 250 251 251 251 250 251 251 254 262 270 273 274 272 272 276 282 288 294 300 312 320 320 322
221 221 221 221 221 222 222 222 221 221 220 220 222 225 227 228 230 231 231 230 230 231 232 235 237 234 229 227 226 227 228 229 231 233 235 237 238 239 239 240 242 244 247 250 252 254 256 258 262 264 261 257 255 254 252 252 252 253 252 252 252 253 254 255 254 252 254 256 254 252 255 262 268 272 272 269 270 274 280 284 289 303 312 315 320
223 223 223 223 223 223 223 224 223 223 222 221 221 223 226 228 230 232 232 231 231 231 232 234 236 235 231 229 228 229 230 230 231 232 233 235 237 239 239 239 240 243 245 248 251 254 255 256 258 262 262 258 255 254 253 253 253 254 254 255 255 256 257 258 258 256 257 258 256 254 255 259 263 267 269 270 269 270 274 278 281 290 303 314 319
224 224 225 225 225 225 225 225 225 224 224 223 221 221 223 226 229 231 232 231 231 231 232 233 234 234 232 230 230 231 231 232 233 233 233 235 236 237 239 239 240 241 243 245 248 251 254 255 257 259 260 258 256 254 252 252 253 254 255 256 257 258 259 261 260 258 259 260 259 257 257 259 261 264 264 266 269 268 269 274 277 279 291 307 312
224 225 226 226 227 227 227 227 227 226 225 225 223 221 221 224 228 230 231 231 231 232 232 232 232 233 233 231 230 231 232 233 236 236 234 235 236 237 239 240 241 242 243 244 245 248 250 253 256 258 259 257 256 254 252 251 251 253 255 256 258 258 260 261 261 259 258 259 260 259 259 259 260 263 264 263 264 265 267 271 273 273 281 294 299
225 226 226 227 228 228 229 229 228 227 226 226 225 224 222 223 227 230 231 231 232 233 233 232 232 232 233 232 230 231 231 232 235 237 235 236 238 239 240 240 241 243 244 245 245 246 248 250 253 256 258 257 255 254 253 252 251 251 252 254 257 259 260 260 260 259 258 259 259 258 258 260 260 261 263 262 260 260 263 268 269 271 278 284 288
226 227 227 228 228 229 229 230 230 230 228 227 227 226 225 225 227 230 231 231 232 233 233 232 232 232 232 232 231 232 232 232 234 236 237 237 238 240 240 241 241 242 244 245 246 247 248 249 251 254 257 258 256 254 253 253 252 251 250 250 252 255 258 259 259 259 257 257 258 256 256 258 259 260 262 262 260 258 259 264 268 271 276 280 283
227 227 228 228 229 229 230 230 231 231 230 229 228 227 227 227 228 230 232 232 232 232 233 233 232 232 232 233 232 232 234 234 235 237 238 239 239 240 241 242 242 242 243 245 246 247 248 249 249 251 254 257 257 255 253 252 252 251 251 250 249 251 254 257 258 258 255 253 254 254 254 255 258 260 260 261 260 258 258 264 269 271 273 278 283
228 228 228 228 229 230 230 231 231 232 232 231 230 228 228 228 228 230 232 233 233 233 232 233 233 233 234 234 233 233 234 235 237 238 239 240 240 241 242 243 244 244 244 245 246 248 249 249 249 250 252 255 256 256 255 253 251 251 251 251 251 251 254 255 256 256 254 251 250 251 252 254 255 257 258 259 259 259 261 266 269 271 272 275 281
229 229 229 229 230 230 231 232 232 232 233 233 232 230 229 228 228 229 231 233 233 233 233 233 234 234 235 235 234 234 234 235 237 238 240 241 242 242 243 244 245 245 245 246 247 248 249 250 250 250 251 253 256 257 256 255 252 251 251 252 252 252 254 255 256 256 253 250 249 250 251 252 253 255 256 259 261 263 265 266 267 270 273 275 278
232 232 232 231 231 231 231 232 233 233 233 234 233 232 231 229 228 229 231 232 233 233 233 233 234 235 235 235 236 236 235 235 237 238 240 242 243 243 244 245 245 246 245 246 247 248 248 249 250 250 250 252 254 256 257 257 254 252 251 252 253 253 254 255 256 257 254 251 249 249 251 253 255 256 258 260 263 265 266 268 269 270 272 274 277
235 235 234 234 233 233 233 233 233 234 234 234 234 234 232 230 229 228 230 232 233 233 233 233 233 234 234 235 236 237 237 236 237 239 240 242 243 244 245 245 246 246 246 246 246 247 248 249 249 250 251 251 252 255 257 258 257 254 252 252 253 254 255 255 256 256 255 251 249 249 250 253 255 258 260 262 265 266 268 272 275 274 273 273 274
236 236 236 236 236 235 235 235 235 235 235 235 235 235 234 232 231 230 230 231 232 233 233 233 233 234 234 234 236 238 239 239 238 239 240 241 243 244 245 246 246 247 247 247 247 247 248 248 248 249 250 251 252 254 255 256 257 256 254 253 253 254 255 256 257 256 254 251 249 249 250 252 254 258 260 261 263 266 269 273 275 277 276 274 273
236 237 238 238 238 237 237 237 237 237 236 236 236 236 235 234 233 232 231 232 233 233 234 234 234 234 234 235 235 237 240 241 240 240 241 241 242 243 245 246 246 247 248 248 249 248 247 248 248 249 250 252 253 254 254 254 256 257 256 254 254 255 255 256 256 256 253 251 249 249 251 252 254 257 259 260 262 265 266 267 269 272 275 274 272
234 236 237 239 239 239 239 238 238 238 238 238 238 237 237 236 236 235 234 234 234 234 234 234 235 235 236 236 237 238 240 242 242 242 242 242 243 243 244 245 246 247 247 248 249 250 249 248 249 249 251 253 254 254 254 254 254 255 256 254 253 254 256 256 256 255 253 252 250 250 251 253 255 257 259 260 263 265 266 264 263 265 269 271 270
233 234 235 236 238 239 240 240 240 240 239 239 239 239 239 239 238 238 237 237 236 236 236 236 236 236 237 237 238 239 240 242 243 243 243 243 243 244 244 245 245 246 246 247 248 250 250 250 250 250 251 252 254 255 255 254 254 254 254 254 253 253 254 255 255 254 254 253 252 251 251 253 255 257 259 261 262 263 265 264 263 263 265 267 268
233 234 234 234 236 237 239 240 241 241 241 240 240 240 240 240 240 240 240 240 239 239 238 238 238 238 238 239 240 241 242 243 243 244 244 244 244 244 245 245 245 246 246 247 248 249 250 251 251 251 251 252 254 255 255 255 254 253 253 254 253 252 253 254 254 254 254 253 253 253 253 254 255 256 257 258 260 261 262 263 263 264 264 264 266
230 233 234 235 235 236 237 238 240 241 241 242 241 241 241 241 242 241 241 241 241 241 241 240 240 240 240 241 242 243 244 244 244 244 244 245 245 245 245 245 246 246 246 247 248 249 250 251 252 252 252 253 254 254 255 255 255 254 254 254 253 252 253 254 255 255 254 253 252 252 253 254 256 256 256 256 257 259 260 261 262 263 263 264 265
223 227 231 234 236 237 238 238 238 239 240 241 241 241 241 242 242 242 242 242 243 243 243 243 242 242 242 242 243 244 245 246 246 245 245 245 245 246 246 246 246 247 247 248 248 249 250 251 252 252 253 254 254 255 255 255 255 254 254 254 253 253 254 254 255 255 255 255 254 253 252 253 254 255 256 255 255 257 258 260 261 262 264 266 267
235 230 229 230 232 235 237 239 240 240 240 241 241 242 242 242 243 243 243 243 243 244 244 244 244 244 244 243 244 244 245 246 247 247 246 246 246 246 246 247 247 248 248 248 248 249 249 250 251 252 253 254 255 255 255 255 255 254 254 254 254 254 255 255 255 256 255 256 256 256 255 254 254 255 256 256 257 257 258 260 262 263 266 269 269
258 252 246 241 236 235 235 236 238 240 241 242 243 243 243 244 244 244 244 244 244 244 244 245 245 245 245 245 245 245 245 246 247 247 247 246 246 246 247 247 248 248 249 249 249 249 249 250 251 252 253 254 255 256 256 256 255 254 254 254 254 255 256 257 257 257 256 256 257 257 257 257 256 256 257 258 259 260 260 261 262 264 267 269 269
264 262 260 258 255 251 246 242 240 239 240 241 242 243 244 245 246 246 247 247 246 246 246 245 245 246 246 246 246 246 246 246 246 247 248 247 247 247 247 248 248 248 249 249 249 250 250 251 251 252 252 253 254 255 256 256 256 256 256 256 256 257 258 259 259 259 258 258 257 257 257 258 258 258 258 258 260 261 262 263 264 265 267 269 269
263 263 263 263 263 262 261 259 255 252 248 245 243 243 243 244 245 246 247 248 248 248 248 247 247 247 247 247 247 247 247 247 247 247 247 248 248 248 248 248 248 248 249 249 250 250 251 251 251 252 252 252 253 254 255 256 257 258 258 259 259 260 260 260 260 260 260 260 259 259 258 257 258 258 258 258 260 262 263 264 264 265 267 268 269
267 264 262 262 261 261 262 262 263 262 261 259 255 252 249 247 246 246 246 246 247 248 249 249 249 249 248 248 248 247 248 248 248 248 248 248 249 249 249 249 249 249 249 250 250 251 251 251 251 251 252 252 253 253 254 256 257 258 259 260 261 261 262 262 262 262 261 261 260 260 259 258 258 258 259 260 261 262 264 264 265 266 267 268 269
289 281 274 269 265 263 262 261 261 261 262 262 261 260 258 256 254 252 250 249 248 248 248 249 249 250 250 250 250 249 249 249 249 249 249 250 250 250 250 250 250 250 251 251 251 251 251 251 251 251 252 252 253 253 254 254 255 257 258 259 260 261 262 263 263 263 263 263 262 261 260 260 260 260 261 262 263 264 266 267 267 268 268 269 270
299 295 291 286 280 275 270 267 264 262 262 262 262 261 261 260 259 258 257 255 253 252 251 250 250 250 250 250 251 251 251 251 251 251 251 251 251 251 251 251 251 251 251 252 251 251 251 251 250 251 251 252 252 253 253 254 255 256 257 258 259 260 261 262 263 263 264 264 264 263 263 262 262 262 263 264 264 265 267 268 269 269 270 270 269
296 294 293 291 289 286 282 278 274 270 268 266 265 265 264 263 262 261 261 260 259 257 256 254 253 252 251 251 251 251 251 251 252 252 252 252 252 252 252 252 252 252 252 252 252 251 251 251 251 251 251 251 252 253 253 254 255 255 256 257 258 259 260 261 262 263 263 264 264 264 264 264 265 265 265 266 266 267 267 268 269 270 270 270 269
293 291 290 290 289 288 287 285 283 280 277 274 272 271 270 269 267 265 264 263 263 262 262 260 259 258 256 255 254 254 253 252 252 252 252 252 252 252 252 252 252 252 252 252 252 252 252 252 252 252 252 251 252 252 253 254 254 255 256 257 257 258 259 260 261 261 262 263 264 264 264 265 265 266 266 267 267 267 268 268 269 269 269 269 268
298 293 290 288 286 286 285 285 285 285 284 283 281 279 277 276 275 273 271 268 266 265 265 264 264 263 262 261 260 259 258 257 255 254 253 253 252 253 253 253 253 253 253 253 253 253 253 253 253 253 253 253 252 252 253 254 255 255 255 256 256 257 258 258 259 260 261 262 263 264 265 265 266 266 267 267 267 267 268 268 269 269 268 268 268
314 308 301 296 292 289 287 285 284 284 284 284 284 283 282 281 280 279 278 277 275 272 270 268 267 266 265 265 264 263 263 261 260 259 258 256 255 254 253 253 253 253 253 253 254 254 254 255 255 255 255 255 254 254 254 254 255 256 256 256 257 257 258 258 259 259 260 261 261 262 263 264 265 266 267 267 267 267 267 267 268 268 268 268 268
341 334 327 320 313 306 300 296 292 288 286 284 282 282 282 282 281 280 279 279 279 279 278 277 275 273 271 269 267 266 265 265 264 263 262 260 259 257 256 255 254 253 253 253 254 254 255 255 256 256 256 256 256 256 256 256 256 256 256 256 257 258 258 259 259 259 260 260 261 261 262 262 263 264 265 266 266 267 267 267 267 267 267 267 267
1 356 350 343 336 329 322 314 308 303 298 294 290 286 283 282 281 280 279 277 276 276 276 276 277 278 278 277 274 272 269 267 266 265 264 263 263 261 260 258 257 255 254 254 254 254 255 255 255 256 256 256 257 257 257 257 257 257 257 257 258 258 259 259 260 260 260 261 261 261 261 262 262 263 263 264 265 265 266 266 266 267 267 267 268
13 10 6 0 354 347 341 334 328 321 315 310 304 299 295 291 287 284 282 281 279 277 275 273 273 273 275 276 277 277 276 274 272 269 267 265 264 264 263 262 260 259 257 256 255 255 255 255 255 255 256 256 256 256 257 257 257 258 258 258 259 259 260 260 261 261 261 262 262 262 262 262 262 263 263 263 264 264 264 265 265 266 266 266 266
19 16 12 9 5 1 356 351 346 341 335 329 323 318 312 306 301 296 292 289 286 283 280 278 275 273 272 272 272 274 275 276 276 275 273 271 268 266 265 264 263 262 260 259 258 257 257 256 256 256 256 255 255 256 256 256 257 257 258 258 259 259 260 260 261 261 261 262 262 262 263 263 263 263 263 264 264 264 264 264 265 265 265 266 266
14 12 11 9 7 5 2 359 355 351 347 343 339 334 329 324 319 314 309 304 300 295 291 287 283 280 277 274 273 272 271 272 272 273 274 275 274 272 270 267 266 264 263 261 260 259 258 258 257 257 257 257 256 256 255 255 255 256 257 257 258 258 259 259 260 260 261 261 261 262 262 262 263 263 263 264 264 264 264 264 265 265 265 265 265
3 2 1 359 358 356 355 353 351 349 347 344 342 339 337 333 329 326 322 318 314 310 307 303 298 294 289 284 280 277 275 273 271 270 270 271 272 272 273 272 270 269 267 265 262 261 259 259 258 258 258 258 257 257 257 256 256 255 255 256 256 257 257 258 258 259 259 260 261 261 261 262 262 263 263 263 264 264 264 264 264 264 264 264 264
359 357 356 354 352 350 347 345 342 340 338 337 335 334 332 331 329 327 325 322 319 317 314 312 310 307 303 299 294 289 284 280 277 275 272 271 270 269 269 270 270 270 270 269 267 265 262 260 259 258 258 257 257 257 257 257 257 256 256 256 256 256 257 257 257 258 258 259 259 260 260 261 262 262 263 263 263 263 263 264 264 264 264 264 265
354 353 352 351 349 348 346 344 342 340 338 335 333 331 329 327 326 325 324 323 321 319 316 314 312 310 308 307 305 302 298 294 289 285 280 277 274 272 271 269 268 268 268 268 269 268 267 265 262 260 258 257 257 257 256 256 256 256 256 256 256 256 256 257 257 257 258 258 258 259 259 260 260 261 262 262 262 263 263 263 264 264 265 266 266
350 349 348 347 346 345 344 343 342 341 339 338 336 333 331 328 326 324 323 323 322 321 320 317 314 310 308 305 304 303 302 300 298 295 292 288 284 280 277 274 272 271 269 268 267 267 267 267 266 264 262 260 258 257 256 256 255 255 255 255 256 256 256 256 256 257 257 257 258 258 259 259 260 260 261 261 262 262 263 264 265 265 267 268 268
346 346 345 344 343 342 341 340 339 339 338 337 336 335 333 331 328 326 324 323 322 322 321 320 318 316 312 309 305 302 300 298 297 296 295 294 291 288 285 281 278 275 273 272 270 268 267 266 265 265 265 263 262 260 258 256 255 255 254 254 254 254 255 255 255 255 256 256 256 257 258 258 259 259 260 260 261 262 263 264 265 267 268 269 270
343 343 343 342 342 341 340 339 338 337 336 336 335 334 333 332 330 328 326 325 323 323 322 321 321 319 317 315 312 308 304 301 298 296 294 292 291 291 289 287 284 281 278 275 273 271 270 268 266 265 264 264 264 263 261 259 257 256 254 254 253 253 253 253 253 254 254 255 255 255 256 257 257 258 259 260 261 262 263 264 266 267 269 270 270
339 339 339 339 339 339 338 338 337 336 335 334 333 333 332 331 330 328 327 325 324 323 323 322 321 320 319 318 316 312 309 306 302 299 297 294 292 290 289 287 286 285 282 279 276 273 271 270 269 267 265 264 264 263 263 262 261 259 257 255 254 253 252 252 252 253 253 253 254 254 255 255 256 257 258 259 260 261 263 264 266 267 268 269 270
334 334 335 335 335 335 335 335 334 334 333 333 332 331 331 330 329 328 327 326 325 324 323 323 322 321 320 319 318 316 313 309 306 303 300 298 295 293 290 288 286 285 283 282 280 276 273 271 270 269 268 266 265 263 263 262 262 261 259 258 256 255 253 252 252 252 252 252 253 253 254 254 255 256 257 258 259 261 262 264 265 266 268 270 272
330 330 330 330 331 331 331 330 330 330 330 330 329 329 329 328 328 327 326 326 325 324 324 323 322 321 321 320 319 318 316 313 310 306 303 300 298 296 293 291 288 285 283 281 280 279 276 273 271 269 268 267 266 265 263 262 262 261 261 259 258 257 256 255 253 252 252 252 252 253 253 254 254 255 257 258 259 260 262 263 265 266 268 271 273
326 326 326 326 327 327 327 327 326 326 326 326 326 325 326 326 326 326 326 326 325 324 324 323 322 321 321 320 319 319 317 316 313 310 306 303 300 298 296 294 291 288 285 282 280 279 278 276 273 270 268 267 266 266 265 264 262 261 260 260 259 258 257 256 255 254 253 252 252 252 252 253 254 255 256 258 259 260 261 262 264 265 267 269 272
323 324 324 324 325 325 325 325 325 324 324 324 323 323 322 323 323 324 325 325 325 325 324 323 322 321 320 319 319 318 318 317 315 313 310 307 303 301 298 296 293 290 287 284 281 278 277 276 275 273 270 267 266 265 264 264 263 262 261 260 259 258 257 256 255 255 254 253 253 253 253 254 254 255 256 257 258 260 261 262 263 264 266 267 269
321 321 322 322 323 323 324 323 323 323 323 323 322 321 321 321 322 323 324 325 325 324 323 322 321 320 319 319 318 318 318 317 315 313 311 309 306 303 300 297 294 291 288 285 282 279 277 276 275 274 272 269 267 264 263 263 262 262 261 260 259 258 258 256 255 254 254 253 253 254 254 254 255 256 256 257 258 259 260 261 262 264 265 266 266
319 320 320 321 321 322 322 322 322 322 322 322 321 321 321 321 322 322 323 323 323 323 322 322 321 320 319 318 318 318 318 317 316 314 312 310 307 305 302 299 296 293 289 286 283 281 278 276 275 274 273 271 268 266 264 262 261 261 260 260 259 258 257 257 256 255 254 253 253 253 253 254 255 255 256 256 257 258 259 260 261 263 265 266 266
Height
10631 10636 10640 10644 10648 10652 10656 10661 10665 10670 10674 10678 10681 10685 10688 10690 10693 10697 10700 10702 10705 10708 10710 10713 10716 10719 10722 10724 10726 10727 10728 10730 10733 10736 10738 10739 10741 10742 10743 10745 10746 10747 10749 10751 10753 10754 10756 10758 10759 10760 10762 10764 10765 10766 10768 10768 10769 10770 10771 10772 10773 10774 10775 10776 10777 10779 10780 10781 10782 10782 10782 10781 10782 10781 10780 10778 10777 10775 10773 10772 10771 10770 10770 10770 10770
10624 10629 10633 10637 10641 10645 10649 10654 10659 10663 10668 10671 10675 10679 10682 10685 10688 10691 10695 10697 10701 10703 10705 10708 10711 10714 10717 10720 10721 10723 10724 10725 10728 10731 10733 10734 10736 10738 10739 10741 10742 10743 10745 10747 10749 10750 10752 10754 10755 10757 10759 10760 10761 10763 10764 10765 10766 10767 10768 10769 10770 10771 10772 10772 10773 10773 10775 10777 10778 10778 10778 10778 10779 10779 10778 10777 10775 10773 10772 10770 10769 10768 10768 10768 10767
10617 10621 10625 10629 10634 10638 10642 10646 10651 10656 10661 10665 10669 10673 10676 10679 10682 10685 10689 10692 10695 10698 10700 10703 10706 10709 10712 10714 10716 10719 10720 10722 10724 10726 10728 10729 10731 10733 10735 10737 10738 10739 10740 10742 10744 10746 10748 10749 10750 10752 10755 10756 10757 10759 10760 10761 10762 10763 10764 10765 10766 10767 10769 10769 10769 10769 10770 10772 10773 10773 10773 10774 10774 10775 10775 10774 10772 10771 10770 10768 10767 10767 10766 10765 10765
10609 10613 10617 10621 10625 10629 10634 10639 10644 10649 10654 10659 10664 10667 10670 10673 10677 10680 10683 10687 10690 10692 10695 10698 10700 10703 10706 10709 10711 10714 10716 10718 10720 10721 10723 10725 10726 10728 10730 10732 10733 10735 10736 10737 10739 10741 10743 10744 10745 10747 10750 10752 10754 10755 10756 10757 10758 10759 10761 10762 10763 10764 10765 10766 10767 10766 10766 10766 10767 10769 10769 10769 10769 10770 10770 10770 10770 10769 10767 10766 10765 10764 10764 10763 10762
10602 10605 10609 10614 10618 10622 10627 10632 10638 10643 10648 10653 10658 10662 10665 10667 10671 10674 10677 10681 10684 10687 10690 10693 10695 10698 10701 10703 10706 10708 10710 10712 10715 10717 10718 10719 10721 10723 10725 10726 10728 10729 10731 10732 10734 10736 10738 10739 10740 10741 10744 10747 10749 10750 10752 10753 10754 10755 10756 10757 10759 10760 10761 10762 10763 10764 10763 10763 10763 10764 10765 10765 10765 10765 10765 10766 10766 10765 10764 10764 10763 10762 10761 10761 10760
10596 10600 10604 10608 10611 10615 10620 10626 10631 10636 10641 10646 10651 10656 10659 10662 10665 10668 10672 10675 10678 10681 10685 10688 10690 10692 10695 10698 10700 10703 10704 10707 10710 10711 10712 10713 10715 10717 10718 10721 10722 10724 10726 10727 10728 10730 10732 10734 10735 10736 10738 10741 10743 10744 10746 10748 10750 10751 10752 10753 10754 10756 10757 10757 10759 10760 10760 10760 10759 10759 10759 10760 10761 10761 10761 10761 10761 10761 10761 10760 10760 10760 10759 10758 10757
10590 10594 10598 10602 10605 10609 10614 10619 10624 10629 10635 10639 10645 10649 10653 10656 10659 10662 10666 10669 10672 10675 10679 10681 10684 10686 10689 10692 10694 10697 10700 10702 10704 10705 10706 10707 10709 10710 10712 10715 10717 10719 10720 10722 10723 10724 10726 10728 10729 10730 10732 10734 10736 10737 10739 10742 10744 10746 10748 10749 10750 10751 10752 10752 10753 10755 10756 10756 10756 10756 10755 10755 10756 10756 10756 10756 10756 10756 10757 10757 10757 10757 10757 10756 10755
10583 10587 10591 10595 10599 10603 10607 10612 10617 10622 10628 10633 10638 10642 10646 10650 10653 10656 10660 10663 10666 10669 10672 10675 10678 10680 10682 10685 10688 10690 10694 10697 10698 10698 10699 10701 10702 10705 10707 10709 10711 10713 10714 10716 10718 10719 10720 10722 10723 10724 10727 10729 10730 10731 10732 10735 10737 10740 10742 10743 10744 10745 10747 10747 10748 10749 10751 10751 10752 10752 10751 10751 10752 10751 10751 10751 10751 10752 10753 10753 10753 10753 10753 10753 10752
10576 10580 10584 10589 10592 10596 10600 10605 10610 10615 10621 10626 10631 10635 10640 10643 10646 10649 10653 10657 10660 10663 10666 10668 10671 10673 10676 10678 10681 10683 10687 10689 10689 10690 10692 10694 10696 10699 10701 10703 10705 10707 10709 10710 10712 10713 10715 10716 10717 10718 10720 10722 10724 10725 10726 10728 10731 10734 10736 10738 10740 10741 10742 10743 10743 10744 10745 10746 10746 10747 10746 10746 10746 10746 10746 10746 10746 10747 10748 10749 10749 10749 10750 10749 10749
10568 10573 10578 10582 10585 10589 10593 10598 10602 10607 10613 10618 10623 10628 10632 10636 10639 10643 10646 10650 10653 10656 10658 10661 10664 10666 10669 10671 10674 10676 10678 10680 10681 10682 10684 10687 10690 10692 10695 10697 10699 10701 10703 10704 10706 10708 10709 10710 10712 10713 10713 10715 10717 10719 10720 10721 10723 10726 10728 10731 10735 10736 10736 10737 10738 10739 10740 10740 10741 10741 10741 10741 10741 10741 10741 10741 10741 10742 10743 10744 10745 10746 10746 10746 10745
10560 10565 10570 10574 10578 10582 10586 10590 10595 10599 10604 10610 10615 10620 10624 10629 10632 10636 10639 10642 10645 10648 10651 10653 10656 10659 10661 10664 10666 10668 10671 10673 10674 10675 10677 10680 10683 10686 10688 10690 10693 10695 10697 10698 10700 10702 10703 10705 10706 10707 10708 10709 10710 10711 10712 10714 10716 10718 10719 10722 10726 10728 10729 10730 10732 10734 10734 10735 10735 10735 10735 10736 10735 10735 10735 10735 10735 10736 10738 10739 10740 10741 10742 10742 10741
10552 10557 10561 10566 10570 10575 10579 10583 10588 10592 10596 10601 10607 10612 10616 10620 10624 10628 10631 10634 10637 10640 10643 10646 10649 10651 10654 10657 10659 10661 10663 10665 10666 10668 10670 10673 10676 10679 10682 10684 10687 10689 10691 10693 10694 10696 10698 10699 10700 10701 10702 10703 10703 10704 10706 10707 10708 10710 10711 10713 10716 10719 10721 10722 10725 10727 10728 10729 10730 10730 10730 10730 10730 10729 10728 10728 10729 10732 10734 10735 10735 10736 10737 10738 10738
10545 10549 10553 10558 10563 10567 10571 10576 10580 10584 10589 10593 10598 10603 10608 10612 10616 10620 10623 10626 10629 10631 10634 10638 10641 10644 10647 10649 10651 10653 10655 10657 10658 10660 10662 10665 10669 10672 10675 10677 10680 10682 10684 10686 10688 10690 10691 10692 10694 10695 10696 10696 10697 10698 10699 10700 10701 10702 10703 10706 10708 10711 10712 10714 10716 10718 10720 10722 10724 10724 10724 10723 10723 10722 10722 10722 10724 10727 10730 10730 10730 10731 10732 10732 10733
10539 10543 10547 10551 10555 10560 10564 10568 10572 10576 10581 10585 10590 10594 10599 10603 10607 10611 10614 10617 10621 10624 10626 10630 10633 10636 10639 10641 10644 10646 10647 10648 10650 10652 10654 10658 10661 10665 10667 10670 10673 10675 10677 10679 10681 10683 10684 10685 10687 10688 10689 10690 10691 10691 10691 10693 10694 10695 10696 10699 10702 10703 10705 10707 10709 10710 10711 10714 10717 10718 10717 10717 10717 10717 10716 10717 10719 10721 10723 10725 10726 10727 10727 10727 10727
10531 10536 10540 10544 10548 10552 10556 10560 10564 10568 10573 10577 10581 10585 10590 10594 10598 10602 10606 10609 10613 10616 10619 10622 10625 10628 10631 10633 10636 10638 10639 10640 10642 10644 10646 10650 10653 10657 10659 10662 10665 10667 10669 10671 10673 10675 10676 10678 10680 10681 10682 10683 10684 10684 10684 10685 10686 10688 10690 10692 10694 10696 10698 10700 10701 10702 10703 10705 10708 10711 10711 10710 10711 10711 10711 10712 10714 10716 10718 10720 10720 10721 10721 10722 10721
10523 10527 10531 10535 10540 10545 10549 10552 10556 10560 10564 10568 10572 10576 10581 10585 10590 10594 10598 10601 10605 10608 10611 10614 10617 10619 10622 10625 10627 10629 10630 10631 10633 10636 10638 10642 10646 10649 10651 10654 10657 10659 10661 10662 10665 10668 10669 10671 10672 10673 10674 10676 10676 10676 10676 10677 10679 10681 10683 10685 10687 10689 10691 10692 10692 10693 10695 10697 10699 10702 10704 10704 10704 10705 10705 10706 10709 10712 10716 10718 10717 10715 10714 10715 10714
10515 10519 10523 10527 10531 10536 10540 10544 10548 10552 10556 10560 10564 10568 10573 10577 10581 10586 10590 10593 10597 10600 10603 10606 10608 10611 10613 10616 10618 10620 10620 10621 10624 10627 10630 10634 10638 10640 10643 10646 10648 10651 10652 10654 10656 10659 10661 10663 10664 10665 10666 10667 10667 10668 10668 10669 10672 10674 10675 10678 10679 10682 10684 10684 10684 10686 10686 10688 10691 10694 10696 10697 10698 10698 10699 10700 10702 10706 10711 10713 10711 10708 10707 10707 10707
10510 10513 10516 10519 10523 10527 10531 10535 10539 10543 10547 10551 10556 10560 10565 10569 10573 10577 10581 10584 10588 10591 10594 10597 10599 10602 10604 10607 10609 10610 10611 10612 10615 10618 10621 10625 10629 10632 10634 10637 10640 10642 10643 10645 10648 10650 10653 10654 10655 10656 10658 10659 10659 10659 10660 10662 10665 10667 10668 10670 10672 10675 10677 10675 10676 10677 10678 10680 10683 10686 10687 10689 10691 10692 10693 10694 10696 10697 10702 10705 10703 10701 10700 10699 10698
10504 10507 10509 10512 10515 10518 10522 10526 10530 10534 10538 10543 10547 10552 10556 10560 10564 10568 10571 10575 10578 10582 10585 10588 10590 10592 10595 10597 10600 10601 10601 10603 10606 10609 10612 10616 10620 10623 10625 10627 10630 10632 10634 10637 10639 10641 10643 10645 10646 10647 10649 10649 10650 10651 10652 10654 10657 10659 10660 10662 10666 10669 10667 10666 10667 10669 10670 10673 10676 10677 10679 10681 10682 10684 10685 10686 10688 10689 10692 10695 10695 10693 10694 10693 10690
10499 10501 10503 10506 10508 10511 10514 10518 10521 10525 10530 10534 10539 10543 10547 10550 10554 10558 10561 10565 10569 10572 10576 10579 10581 10583 10585 10588 10590 10591 10592 10594 10596 10599 10602 10606 10610 10613 10615 10617 10620 10622 10625 10628 10630 10632 10633 10635 10636 10638 10639 10640 10641 10642 10643 10645 10648 10651 10653 10656 10659 10660 10657 10657 10660 10662 10663 10666 10668 10669 10671 10672 10673 10676 10677 10677 10679 10680 10682 10684 10685 10685 10686 10686 10684
10496 10497 10499 10501 10503 10505 10508 10511 10513 10517 10520 10524 10529 10533 10537 10540 10544 10547 10551 10554 10558 10562 10565 10568 10570 10572 10575 10577 10579 10581 10582 10584 10587 10590 10593 10596 10599 10602 10604 10607 10609 10612 10615 10618 10621 10622 10623 10624 10626 10627 10629 10630 10632 10634 10635 10637 10638 10642 10645 10648 10650 10649 10648 10650 10653 10654 10656 10658 10660 10661 10663 10664 10664 10666 10668 10669 10669 10670 10671 10674 10675 10675 10676 10678 10677
10492 10494 10495 10497 10499 10501 10503 10505 10507 10510 10512 10515 10519 10522 10526 10529 10532 10536 10539 10543 10547 10550 10553 10556 10559 10561 10564 10566 10569 10571 10572 10574 10577 10580 10584 10586 10588 10591 10593 10596 10598 10602 10606 10608 10610 10612 10614 10615 10616 10617 10619 10621 10623 10625 10627 10628 10629 10632 10636 10637 10638 10639 10640 10642 10644 10646 10648 10649 10650 10651 10654 10655 10656 10657 10659 10659 10659 10660 10662 10663 10665 10666 10667 10669 10669
10489 10490 10492 10493 10495 10497 10499 10501 10503 10505 10506 10509 10511 10513 10516 10519 10522 10525 10528 10532 10535 10538 10541 10544 10546 10549 10552 10555 10557 10560 10562 10563 10565 10569 10573 10575 10577 10580 10582 10585 10588 10591 10595 10598 10600 10601 10603 10605 10606 10608 10609 10611 10613 10614 10616 10618 10619 10622 10624 10625 10626 10628 10629 10632 10635 10637 10638 10640 10641 10643 10644 10646 10647 10648 10649 10650 10649 10649 10653 10655 10656 10657 10659 10660 10660
10486 10487 10488 10489 10491 10492 10494 10496 10498 10500 10501 10503 10505 10507 10509 10511 10513 10516 10518 10521 10524 10527 10529 10532 10534 10536 10539 10542 10545 10548 10550 10552 10554 10557 10561 10564 10566 10569 10571 10573 10576 10579 10584 10587 10588 10590 10592 10594 10596 10598 10599 10600 10602 10603 10605 10607 10608 10611 10612 10613 10614 10616 10618 10622 10625 10626 10628 10630 10632 10634 10634 10635 10637 10638 10640 10640 10639 10640 10643 10647 10648 10648 10649 10650 10651
10484 10485 10485 10486 10487 10488 10489 10491 10492 10494 10496 10497 10499 10501 10502 10504 10506 10508 10510 10512 10514 10517 10519 10521 10523 10525 10527 10530 10532 10535 10537 10540 10542 10545 10548 10551 10554 10557 10559 10561 10564 10567 10571 10574 10576 10579 10582 10583 10585 10586 10587 10589 10590 10591 10594 10596 10597 10599 10600 10601 10602 10605 10608 10611 10613 10614 10617 10621 10623 10625 10626 10627 10627 10629 10630 10631 10631 10633 10634 10636 10638 10639 10639 10640 10641
10482 10482 10483 10483 10484 10484 10485 10486 10487 10488 10490 10491 10493 10494 10496 10497 10499 10500 10502 10504 10505 10507 10509 10511 10512 10514 10516 10518 10521 10523 10525 10528 10530 10532 10535 10538 10541 10544 10546 10549 10551 10554 10558 10562 10564 10568 10571 10572 10573 10574 10575 10577 10579 10581 10584 10585 10585 10587 10588 10589 10591 10595 10597 10600 10602 10605 10608 10611 10613 10616 10619 10619 10618 10619 10621 10622 10624 10625 10624 10624 10627 10628 10628 10630 10631
10480 10480 10480 10481 10481 10481 10482 10482 10483 10483 10484 10485 10486 10488 10489 10490 10491 10493 10494 10495 10497 10498 10499 10500 10502 10503 10505 10507 10509 10512 10514 10516 10518 10520 10522 10525 10527 10530 10532 10535 10538 10541 10544 10548 10552 10555 10557 10559 10560 10561 10563 10565 10568 10571 10573 10574 10574 10575 10577 10578 10581 10584 10586 10588 10591 10595 10598 10600 10602 10606 10609 10608 10608 10609 10611 10612 10614 10615 10613 10613 10615 10617 10617 10617 10620
10477 10477 10477 10478 10478 10478 10479 10479 10479 10480 10480 10480 10481 10482 10482 10483 10484 10485 10487 10488 10489 10490 10490 10491 10492 10493 10495 10496 10498 10500 10503 10505 10507 10508 10510 10512 10514 10516 10519 10522 10524 10527 10530 10534 10538 10541 10543 10545 10547 10548 10550 10553 10556 10559 10560 10561 10562 10564 10565 10566 10569 10572 10574 10577 10580 10583 10586 10587 10589 10593 10596 10596 10598 10600 10600 10600 10603 10604 10601 10600 10602 10604 10604 10604 10609
10476 10476 10476 10476 10476 10476 10476 10476 10476 10476 10476 10476 10476 10476 10477 10477 10478 10478 10479 10480 10481 10482 10482 10483 10483 10484 10485 10486 10487 10489 10491 10494 10495 10497 10498 10500 10502 10503 10505 10508 10510 10513 10515 10519 10523 10526 10528 10530 10533 10534 10536 10540 10543 10545 10546 10547 10549 10552 10553 10555 10557 10559 10562 10564 10567 10570 10571 10573 10575 10578 10580 10582 10585 10587 10587 10588 10591 10591 10589 10588 10589 10590 10590 10591 10596
10475 10474 10474 10474 10473 10473 10473 10473 10473 10473 10473 10473 10472 10472 10472 10472 10472 10472 10473 10473 10473 10474 10474 10475 10475 10476 10476 10477 10478 10479 10480 10482 10484 10485 10486 10488 10489 10490 10491 10493 10496 10499 10502 10506 10509 10512 10514 10515 10518 10520 10523 10526 10529 10531 10532 10534 10536 10539 10541 10543 10545 10547 10549 10551 10553 10556 10557 10558 10560 10563 10565 10567 10570 10572 10573 10574 10577 10576 10575 10575 10576 10577 10576 10577 10582
10472 10472 10472 10471 10471 10470 10470 10470 10470 10470 10469 10469 10469 10468 10467 10467 10467 10467 10467 10467 10466 10466 10466 10466 10467 10467 10468 10468 10468 10469 10469 10471 10472 10474 10474 10475 10476 10477 10478 10480 10482 10485 10489 10492 10494 10497 10499 10501 10502 10505 10508 10511 10514 10517 10518 10520 10522 10525 10527 10529 10531 10533 10535 10537 10539 10541 10543 10544 10546 10548 10550 10553 10555 10557 10558 10559 10561 10561 10561 10561 10563 10564 10564 10563 10565
10470 10469 10469 10469 10468 10467 10467 10467 10466 10466 10465 10465 10465 10464 10464 10463 10462 10461 10461 10461 10461 10460 10460 10459 10459 10459 10459 10459 10459 10459 10460 10460 10461 10462 10463 10464 10464 10465 10466 10468 10470 10472 10475 10478 10480 10482 10484 10486 10488 10490 10492 10495 10499 10502 10504 10505 10507 10509 10511 10514 10516 10519 10521 10523 10524 10526 10528 10531 10533 10535 10536 10538 10540 10542 10543 10545 10546 10547 10548 10548 10549 10550 10550 10550 10551
10468 10467 10467 10466 10465 10465 10464 10463 10463 10462 10462 10461 10460 10460 10459 10459 10458 10457 10456 10455 10454 10453 10453 10452 10452 10451 10451 10451 10450 10450 10450 10450 10451 10451 10452 10452 10453 10454 10455 10456 10458 10460 10461 10464 10466 10468 10469 10472 10473 10475 10477 10480 10482 10485 10488 10490 10492 10493 10496 10499 10501 10503 10506 10507 10509 10511 10513 10515 10519 10521 10522 10523 10525 10527 10528 10530 10531 10533 10534 10535 10536 10537 10536 10537 10540
10466 10466 10465 10464 10463 10462 10461 10460 10459 10459 10458 10457 10456 10456 10455 10454 10453 10453 10452 10451 10450 10448 10447 10446 10445 10444 10443 10443 10442 10442 10441 10441 10441 10441 10441 10442 10442 10443 10444 10445 10446 10448 10449 10451 10452 10453 10455 10457 10459 10460 10462 10464 10467 10469 10471 10473 10475 10478 10480 10483 10485 10488 10490 10491 10493 10496 10497 10499 10502 10504 10506 10508 10510 10511 10512 10513 10515 10518 10520 10521 10522 10522 10522 10523 10525
10465 10464 10463 10462 10461 10460 10459 10458 10457 10456 10455 10454 10453 10452 10451 10450 10449 10448 10447 10447 10446 10445 10444 10442 10440 10439 10437 10436 10435 10434 10433 10432 10432 10431 10431 10431 10431 10432 10432 10433 10435 10436 10438 10439 10439 10440 10440 10442 10445 10446 10447 10449 10451 10453 10455 10456 10458 10461 10464 10467 10469 10472 10474 10475 10477 10479 10481 10483 10485 10486 10487 10491 10494 10495 10495 10497 10500 10503 10505 10506 10506 10507 10507 10508 10510
10463 10462 10461 10460 10459 10458 10457 10455 10454 10453 10452 10451 10450 10449 10448 10446 10445 10444 10442 10441 10440 10440 10439 10438 10437 10435 10433 10431 10429 10428 10426 10425 10424 10423 10422 10422 10421 10421 10421 10422 10422 10424 10425 10426 10427 10428 10428 10428 10430 10432 10433 10434 10436 10438 10439 10441 10443 10445 10447 10451 10453 10455 10457 10459 10460 10462 10464 10466 10468 10468 10469 10473 10477 10477 10478 10481 10485 10488 10489 10491 10491 10491 10492 10493 10494
10462 10461 10459 10458 10457 10456 10454 10453 10452 10450 10449 10448 10447 10445 10444 10443 10441 10440 10438 10437 10436 10434 10433 10432 10431 10430 10429 10427 10424 10422 10420 10419 10417 10415 10414 10413 10412 10412 10411 10410 10410 10411 10412 10413 10415 10415 10416 10416 10416 10417 10419 10420 10421 10423 10424 10426 10428 10429 10432 10435 10437 10439 10440 10441 10443 10445 10447 10449 10450 10451 10453 10455 10458 10459 10461 10465 10468 10470 10472 10473 10473 10473 10475 10476 10477
10461 10460 10458 10457 10455 10454 10452 10451 10450 10448 10447 10445 10444 10442 10441 10439 10437 10436 10434 10432 10431 10429 10427 10426 10424 10423 10422 10421 10419 10417 10415 10413 10411 10409 10407 10405 10404 10403 10402 10401 10400 10399 10399 10400 10401 10402 10403 10403 10404 10404 10405 10406 10407 10408 10409 10411 10413 10415 10417 10419 10421 10423 10424 10425 10426 10428 10430 10432 10433 10434 10436 10438 10440 10441 10444 10448 10451 10453 10454 10455 10455 10455 10457 10458 10459
10460 10459 10457 10456 10454 10453 10451 10450 10448 10446 10445 10443 10441 10440 10438 10436 10434 10432 10430 10428 10426 10424 10422 10420 10418 10416 10415 10414 10412 10411 10409 10407 10405 10403 10401 10399 10397 10395 10393 10392 10390 10389 10388 10388 10388 10389 10390 10390 10391 10391 10392 10392 10392 10393 10395 10397 10399 10401 10403 10404 10405 10406 10408 10410 10411 10412 10413 10415 10417 10418 10419 10421 10423 10425 10428 10431 10434 10435 10435 10436 10437 10437 10438 10439 10441
10458 10457 10456 10454 10453 10451 10449 10448 10446 10444 10442 10441 10439 10437 10435 10433 10431 10429 10427 10425 10423 10421 10418 10415 10413 10410 10408 10406 10404 10403 10401 10400 10398 10396 10394 10392 10390 10388 10386 10384 10382 10380 10378 10377 10376 10376 10377 10378 10378 10378 10378 10378 10379 10379 10381 10382 10384 10386 10388 10389 10390 10391 10393 10394 10396 10397 10398 10400 10401 10402 10404 10406 10407 10409 10412 10415 10417 10417 10417 10418 10419 10419 10420 10422 10423
10456 10454 10453 10451 10450 10448 10447 10445 10443 10441 10439 10437 10435 10433 10431 10429 10427 10425 10423 10420 10418 10416 10414 10412 10409 10406 10403 10400 10398 10395 10393 10391 10389 10388 10386 10384 10382 10380 10378 10376 10374 10372 10370 10368 10366 10365 10365 10365 10365 10365 10365 10364 10364 10365 10366 10368 10369 10371 10373 10374 10376 10377 10378 10379 10381 10382 10384 10386 10387 10388 10389 10391 10394 10396 10398 10398 10399 10400 10402 10402 10403 10403 10404 10405 10406
10454 10452 10450 10448 10447 10445 10443 10441 10439 10437 10435 10433 10431 10429 10427 10425 10422 10420 10418 10415 10413 10411 10409 10406 10404 10402 10399 10396 10393 10390 10387 10384 10382 10379 10377 10375 10373 10371 10369 10367 10365 10362 10360 10359 10357 10355 10354 10353 10353 10352 10352 10351 10351 10351 10352 10354 10355 10357 10358 10360 10361 10363 10364 10365 10367 10368 10370 10372 10373 10374 10375 10378 10380 10382 10383 10384 10384 10386 10387 10387 10388 10389 10390 10390 10391
10451 10449 10447 10445 10443 10441 10439 10437 10435 10433 10431 10429 10427 10424 10422 10420 10417 10415 10412 10410 10408 10405 10403 10400 10398 10396 10393 10391 10388 10385 10382 10379 10376 10373 10370 10367 10365 10362 10360 10357 10355 10353 10351 10348 10346 10345 10343 10342 10341 10340 10339 10339 10339 10339 10339 10340 10341 10342 10344 10345 10347 10348 10350 10351 10353 10354 10355 10357 10359 10361 10362 10365 10367 10368 10369 10370 10371 10372 10373 10374 10375 10376 10377 10377 10376
10448 10446 10444 10442 10440 10438 10435 10433 10431 10429 10426 10424 10422 10420 10417 10415 10412 10409 10407 10404 10402 10399 10396 10394 10391 10389 10386 10384 10381 10378 10375 10372 10369 10366 10363 10360 10357 10354 10351 10348 10346 10343 10341 10339 10336 10334 10332 10331 10330 10329 10328 10326 10326 10326 10326 10327 10327 10328 10330 10331 10332 10334 10336 10337 10339 10340 10341 10343 10346 10347 10349 10352 10354 10354 10355 10356 10358 10360 10361 10362 10363 10364 10364 10364 10363
10444 10442 10440 10438 10436 10434 10431 10429 10426 10424 10422 10419 10417 10414 10412 10409 10406 10404 10401 10398 10395 10393 10390 10387 10384 10381 10378 10376 10373 10370 10367 10364 10361 10358 10355 10352 10349 10346 10343 10339 10336 10333 10330 10328 10326 10324 10321 10319 10318 10317 10316 10315 10314 10314 10314 10314 10314 10315 10316 10317 10318 10319 10321 10323 10324 10326 10328 10329 10332 10333 10335 10338 10340 10341 10342 10343 10346 10348 10350 10350 10351 10352 10352 10352 10351
10439 10437 10435 10433 10431 10429 10427 10425 10422 10419 10417 10414 10412 10409 10406 10403 10401 10398 10395 10392 10389 10386 10383 10380 10377 10373 10370 10367 10364 10361 10358 10355 10352 10349 10346 10342 10339 10336 10333 10330 10327 10323 10320 10317 10314 10312 10310 10308 10306 10305 10304 10303 10302 10302 10302 10302 10302 10302 10303 10304 10304 10305 10307 10309 10310 10312 10314 10316 10318 10319 10321 10324 10327 10328 10329 10330 10333 10336 10338 10339 10339 10340 10341 10340 10339
10435 10433 10431 10429 10426 10424 10422 10419 10417 10414 10412 10409 10406 10403 10400 10397 10394 10391 10388 10385 10382 10378 10375 10372 10369 10365 10362 10359 10355 10352 10348 10345 10342 10339 10336 10332 10329 10325 10321 10318 10315 10312 10309 10306 10302 10299 10298 10296 10295 10293 10292 10291 10290 10289 10289 10290 10290 10290 10291 10292 10292 10292 10293 10295 10297 10299 10301 10303 10305 10306 10308 10311 10314 10315 10316 10318 10321 10325 10326 10327 10327 10329 10330 10329 10329
10431 10428 10426 10424 10421 10419 10417 10414 10411 10409 10406 10403 10400 10397 10394 10391 10388 10385 10381 10378 10375 10371 10368 10364 10361 10357 10354 10350 10346 10343 10339 10335 10331 10328 10324 10321 10318 10314 10310 10306 10302 10299 10296 10293 10290 10287 10285 10283 10282 10281 10280 10279 10277 10276 10276 10277 10277 10278 10279 10280 10281 10281 10282 10282 10284 10286 10288 10290 10292 10294 10295 10298 10301 10303 10304 10306 10309 10312 10314 10315 10316 10317 10319 10319 10319
10425 10423 10420 10418 10415 10412 10410 10407 10405 10402 10399 10397 10394 10391 10388 10385 10381 10378 10374 10370 10367 10363 10360 10356 10352 10349 10345 10341 10337 10334 10330 10326 10321 10317 10313 10308 10305 10302 10298 10294 10290 10286 10282 10279 10277 10274 10272 10269 10268 10268 10267 10267 10266 10265 10264 10264 10264 10265 10266 10267 10268 10269 10270 10271 10272 10274 10276 10278 10280 10282 10283 10286 10288 10290 10292 10294 10297 10299 10302 10303 10305 10306 10308 10309 10309
10420 10418 10415 10412 10410 10407 10404 10401 10398 10395 10392 10389 10386 10383 10380 10377 10373 10369 10365 10361 10358 10354 10351 10347 10343 10340 10337 10332 10328 10323 10319 10315 10311 10307 10302 10297 10292 10289 10285 10281 10277 10272 10268 10265 10262 10260 10258 10256 10254 10253 10253 10253 10253 10252 10252 10251 10252 10252 10253 10254 10255 10257 10258 10260 10261 10262 10264 10266 10268 10270 10272 10274 10276 10278 10280 10283 10285 10287 10289 10291 10293 10295 10296 10298 10299
10415 10412 10410 10407 10404 10401 10398 10395 10391 10388 10385 10381 10378 10375 10371 10367 10363 10358 10354 10351 10348 10345 10341 10337 10333 10330 10327 10323 10318 10313 10308 10303 10298 10294 10290 10285 10280 10275 10271 10267 10262 10259 10255 10251 10247 10245 10244 10242 10240 10239 10238 10238 10239 10239 10239 10239 10239 10239 10240 10241 10242 10244 10245 10247 10249 10250 10252 10254 10256 10258 10260 10262 10264 10266 10269 10271 10274 10275 10277 10279 10281 10283 10285 10286 10287